This is the latest recevied weather packets stored in our database for station/object DG9BJA-13. If no packets are shown the sender has not sent any weather packets the latest 10 day(s).
| Time | Temp. | Humidity | Pressure | Rain* | Wind** | Luminosity | Snow |
|---|---|---|---|---|---|---|---|
| 1777656977 | 22.22° C | 38% | 1022.4 hPa | 0 mm | - | 135 W/m² | - |
| 1777656377 | 22.22° C | 38% | 1022.5 hPa | 0 mm | - | 156 W/m² | - |
| 1777655777 | 22.78° C | 38% | 1022.5 hPa | 0 mm | - | 183 W/m² | - |
| 1777655176 | 22.78° C | 36% | 1022.9 hPa | 0 mm | - | 206 W/m² | - |
| 1777654577 | 22.78° C | 36% | 1023 hPa | 0 mm | - | 230 W/m² | - |
| 1777653977 | 22.78° C | 37% | 1023 hPa | 0 mm | - | 257 W/m² | - |
| 1777653376 | 22.78° C | 37% | 1023 hPa | 0 mm | - | 283 W/m² | - |
| 1777652776 | 23.33° C | 36% | 1023.2 hPa | 0 mm | - | 311 W/m² | - |
| 1777652176 | 23.33° C | 36% | 1023.2 hPa | 0 mm | - | 338 W/m² | - |
| 1777651576 | 22.78° C | 36% | 1023.4 hPa | 0 mm | - | 359 W/m² | - |
| 1777650976 | 23.33° C | 35% | 1023.6 hPa | 0 mm | - | 388 W/m² | - |
| 1777650376 | 23.33° C | 36% | 1023.6 hPa | 0 mm | - | 418 W/m² | - |
| 1777649776 | 23.33° C | 36% | 1023.6 hPa | 0 mm | - | 443 W/m² | - |
| 1777649176 | 23.33° C | 36% | 1023.9 hPa | 0 mm | - | 466 W/m² | - |
| 1777647976 | 23.33° C | 35% | 1024 hPa | 0 mm | - | 508 W/m² | - |
| 1777647376 | 23.33° C | 35% | 1024.1 hPa | 0 mm | - | 529 W/m² | - |
| 1777646776 | 23.33° C | 36% | 1024.1 hPa | 0 mm | - | 545 W/m² | - |
| 1777646176 | 23.33° C | 37% | 1024.3 hPa | 0 mm | - | 577 W/m² | - |
| 1777645576 | 23.33° C | 36% | 1024.6 hPa | 0 mm | - | 603 W/m² | - |
| 1777644976 | 23.33° C | 36% | 1024.6 hPa | 0 mm | - | 624 W/m² | - |
| 1777644376 | 23.33° C | 36% | 1024.6 hPa | 0 mm | - | 643 W/m² | - |
| 1777643776 | 23.33° C | 36% | 1024.8 hPa | 0 mm | - | 664 W/m² | - |
| 1777643176 | 23.33° C | 37% | 1024.8 hPa | 0 mm | - | 677 W/m² | - |
| 1777642576 | 23.33° C | 37% | 1025.1 hPa | 0 mm | - | 696 W/m² | - |
| 1777641975 | 23.33° C | 37% | 1025.3 hPa | 0 mm | - | 705 W/m² | - |
* Rain latest hour (hover to see other rain measurements)
** Current wind speed in m/s (hover to see current wind gust speed)